Regional Weather Roundup
Issued by NWS

Home | Current Version | Previous Version | Text Only | Print | Product List | Glossary Off
Versions: 1 2 3 4 5 6 7 8 9 10 11 12 13 14 15 16 17 18 19 20 21 22 23 24 25 26 27 28 29 30 31 32 33 34 35 36 37 38 39 40 41 42 43 44 45 46 47 48 49 50

000
ASUS43 KLSX 261159
RWRMO

WEATHER SUMMARY FOR MISSOURI
NATIONAL WEATHER SERVICE SPRINGFIELD MO
700 AM CDT SUN APR 26 2015

NOTE: "FAIR" INDICATES FEW OR NO CLOUDS BELOW 12,000 FEET WITH NO
       SIGNIFICANT WEATHER AND/OR OBSTRUCTIONS TO VISIBILITY.
       CURRENT SKY AND/OR WEATHER CONDITIONS ARE NOT AVAILABLE FOR
       CHILLICOTHE AND FARMINGTON.

MOZ001>031-035>038-043-044-053-054-261300-
...NORTHERN AND WESTERN MISSOURI...

CITY           SKY/WX    TMP DP  RH WIND       PRES   REMARKS
KANSAS CTY INT CLOUDY    48  45  89 NE12      29.91R FOG
6HR MIN TEMP:  48; 6HR MAX TEMP:  49; 6HR PCP: TRACE;

KANSAS C DTWN  CLOUDY    49  44  83 NE12      29.91R
6HR MIN TEMP:  49; 6HR MAX TEMP:  51;

LEE`S SUMMIT   CLOUDY    48  44  86 NE14      29.91R
6HR MIN TEMP:  48; 6HR MAX TEMP:  49;

ST JOSEPH      CLOUDY    48  43  82 NE12      29.94R HAZE
6HR MIN TEMP:  48; 6HR MAX TEMP:  49;

CHILLICOTHE      N/A     47  41  80 N8        29.95R
6HR MIN TEMP:  47; 6HR MAX TEMP:  49;

KIRKSVILLE     CLEAR     41  39  93 NE7       29.95R
6HR MIN TEMP:  40; 6HR MAX TEMP:  47;


$$
MOZ066>068-077>081-088>096-101>105-261300-
...SOUTHWEST MISSOURI...

CITY           SKY/WX    TMP DP  RH WIND       PRES   REMARKS
SPRINGFIELD    CLOUDY    51  48  89 NE14      29.83R
6HR MIN TEMP:  51; 6HR MAX TEMP:  56;

JOPLIN         CLOUDY    53  50  89 NE10      29.83R
6HR MIN TEMP:  52; 6HR MAX TEMP:  56;


$$
MOZ032>034-039>042-045>050-055>058-069>072-261300-
...CENTRAL MISSOURI...

CITY           SKY/WX    TMP DP  RH WIND       PRES   REMARKS
COLUMBIA       CLOUDY    47  44  90 NE8       29.89R
6HR MIN TEMP:  47; 6HR MAX TEMP:  48; 6HR PCP: TRACE;

JEFFERSON CITY CLOUDY    48  43  82 NE7       29.89R
6HR MIN TEMP:  48; 6HR MAX TEMP:  51;

ROLLA          CLOUDY    45  44  97 NE9       29.85R
6HR MIN TEMP:  45; 6HR MAX TEMP:  50;

SEDALIA        CLOUDY    48  44  86 NE9       29.91R
6HR MIN TEMP:  48; 6HR MAX TEMP:  50;

OSAGE BEACH    CLOUDY    46  43  87 NE9       29.88R

$$
MOZ051-052-059>065-261300-
...EAST CENTRAL MISSOURI...

CITY           SKY/WX    TMP DP  RH WIND       PRES   REMARKS
ST LOUIS INTL  CLOUDY    48  41  76 NE13      29.89R
6HR MIN TEMP:  48; 6HR MAX TEMP:  50; 6HR PCP: TRACE;

SPIRIT OF STL  CLOUDY    47  41  80 NE14      29.88R
6HR MIN TEMP:  47; 6HR MAX TEMP:  49;

ST CHARLES     CLOUDY    47  41  80 NE14      29.89R
6HR MIN TEMP:  47; 6HR MAX TEMP:  48;


$$
MOZ072>076-082>087-097>100-106>115-261300-
...SOUTH CENTRAL AND SOUTHEAST MISSOURI...

CITY           SKY/WX    TMP DP  RH WIND       PRES   REMARKS
CAPE GIRARDEAU CLOUDY    50  48  93 N10       29.81R
6HR MIN TEMP:  50; 6HR MAX TEMP:  58;

FARMINGTON     CLOUDY    46  45  93 N8        29.87R
6HR MIN TEMP:  46; 6HR MAX TEMP:  52;

POPLAR BLUFF   CLOUDY    53  46  77 N15       29.80R
6HR MIN TEMP:  53; 6HR MAX TEMP:  65;

WEST PLAINS    CLOUDY    52  47  83 N8        29.82R
6HR MIN TEMP:  52; 6HR MAX TEMP:  58;


$$



USA.gov is the U.S. government's official web portal to all federal, state and local government web resources and services.